Regional Weather Roundup
Issued by NWS Raleigh/Durham, NC

Current Version | Previous Version | Text Only | Print | Product List | Glossary On
Versions: 1 2 3 4 5 6 7 8 9 10 11 12 13 14 15 16 17 18 19 20 21 22 23 24 25 26 27 28 29 30 31 32 33 34 35 36 37 38 39 40 41 42 43 44 45 46 47 48 49 50
000
ASUS42 KRAH 290010
RWRRAH
NORTH CAROLINA WEATHER ROUNDUP
NATIONAL WEATHER SERVICE RALEIGH NC
700 PM EST FRI NOV 28 2014

NOTE: "FAIR" INDICATES FEW OR NO CLOUDS BELOW 12,000 FEET WITH NO
SIGNIFICANT WEATHER AND/OR OBSTRUCTIONS TO VISIBILITY.

NCZ001-053-055-056-065-067-290100-
WESTERN NORTH CAROLINA

CITY           SKY/WX    TMP DP  RH WIND       PRES   REMARKS
ASHEVILLE      CLEAR     34  21  59 CALM      30.25R
JEFFERSON      PTCLDY    30  15  52 CALM      30.20S
MORGANTON      CLEAR     30  25  80 CALM      30.31S
HICKORY        CLEAR     37  21  52 CALM      30.26S
RUTHERFORDTON  CLEAR     39  19  44 SE3       30.28S
MOUNT AIRY     CLEAR     32  25  74 CALM      30.29S
BOONE          CLEAR     29  21  71 CALM      30.21S
$$

NCZ021-022-025-041-071-084-088-290100-
CENTRAL NORTH CAROLINA

CITY           SKY/WX    TMP DP  RH WIND       PRES   REMARKS
CHARLOTTE      PTCLDY    39  20  46 S5        30.30R
GREENSBORO     PTCLDY    37  20  50 CALM      30.27S
WINSTON-SALEM  CLEAR     36  20  52 CALM      30.29R
RALEIGH-DURHAM PTCLDY    34  24  67 CALM      30.31R
FORT BRAGG     CLEAR     34  30  84 CALM      30.32R
FAYETTEVILLE   CLEAR     37  27  67 CALM      30.32R
BURLINGTON     CLEAR     33  22  63 CALM      30.29R
LAURINBURG     CLEAR     35  28  75 CALM      30.33R
$$

NCZ011-015-027-028-043-044-047-080-103-290100-
NORTHEASTERN NORTH CAROLINA

CITY           SKY/WX    TMP DP  RH WIND       PRES   REMARKS
ROCKY MT-WILSO CLEAR     32  25  75 CALM      30.32R
GREENVILLE     CLEAR     34  28  80 CALM      30.33R
WASHINGTON     CLEAR     33  27  78 CALM      30.32S
ELIZABETH CITY CLEAR     37  25  61 CALM      30.32R
MANTEO         CLEAR     38  23  54 N3        30.31S
CAPE HATTERAS  CLEAR     39  25  57 VRB5      30.31S
$$

NCZ078-087-090-091-093-098-101-290100-
SOUTHEASTERN NORTH CAROLINA

CITY           SKY/WX    TMP DP  RH WIND       PRES   REMARKS
LUMBERTON      CLEAR     36  27  69 CALM      30.33R
GOLDSBORO      CLEAR     35  29  78 CALM      30.30R
KINSTON        CLEAR     30  28  93 CALM      30.33R
KENANSVILLE    CLEAR     31  27  83 CALM      30.33S
NEW BERN       CLEAR     35  28  75 CALM      30.33R
CHERRY POINT   CLEAR     37  25  61 CALM      30.33R
BEAUFORT       CLEAR     34  27  75 N3        30.33R
JACKSONVILLE   CLEAR     34  29  82 CALM      30.32R
WILMINGTON     CLEAR     36  30  79 CALM      30.33R
$$



USA.gov is the U.S. government's official web portal to all federal, state and local government web resources and services.